Location: Giessen
(50.5800°N, 8.7028°E)
Time: 20:50:32
(UTC+02:00)

ISS - Visible Passes

Search period start: 25 September 2017 00:00
Search period end: 05 October 2017 00:00
Orbit: 401 x 407 km, 51.6° (Epoch: 26 September)

Date Brightness Start Highest point End Pass type
(mag) Time Alt. Az. Time Alt. Az. Time Alt. Az.
25 Sep -1.2 21:19:17 10° SSW 21:19:30 11° SSW 21:19:30 11° SSW visible
26 Sep -2.1 20:27:42 10° S 20:29:51 17° SE 20:29:51 17° SE visible
27 Sep -2.7 21:10:30 10° SW 21:12:41 33° SSW 21:12:41 33° SSW visible
28 Sep -2.8 20:18:28 10° SSW 20:21:23 30° SSE 20:22:41 22° ESE visible
28 Sep -1.2 21:54:22 10° WSW 21:55:20 18° WSW 21:55:20 18° WSW visible
29 Sep -3.9 21:02:00 10° WSW 21:05:12 72° S 21:05:12 72° S visible
30 Sep -3.6 20:09:43 10° SW 20:12:55 51° SSE 20:14:57 20° E visible
30 Sep -1.6 21:46:04 10° W 21:47:36 25° W 21:47:36 25° W visible
01 Oct -3.9 20:53:38 10° W 20:56:55 83° N 20:57:16 68° ENE visible
02 Oct -3.9 20:01:13 10° WSW 20:04:29 80° SSE 20:06:53 17° ENE visible
02 Oct -1.8 21:37:45 10° W 21:39:31 29° WNW 21:39:31 29° WNW visible
03 Oct -3.8 20:45:17 10° W 20:48:33 71° N 20:49:05 56° ENE visible
04 Oct -3.8 19:52:47 10° W 19:56:04 78° N 19:58:36 16° ENE visible
04 Oct -2.0 21:29:21 10° WNW 21:31:15 32° WNW 21:31:15 32° WNW visible
